This is the latest recevied weather packets stored in our database for station/object LU9DA-WX. If no packets are shown the sender has not sent any weather packets the latest 1 day(s).
| Time | Temp. | Humidity | Pressure | Rain* | Wind** | Luminosity | Snow |
|---|---|---|---|---|---|---|---|
| 1777999994 | 21.67° C | - | - | 0 mm | 0.89 m/s, 270° | - | - |
| 1777999214 | 21.67° C | - | - | 0 mm | 0.45 m/s, 270° | - | - |
| 1777998854 | 21.67° C | - | - | 0 mm | 0.45 m/s, 225° | - | - |
| 1777998493 | 22.22° C | - | - | 0 mm | 1.79 m/s, 225° | - | - |
| 1777998133 | 22.22° C | - | - | 0 mm | 0 m/s | - | - |
| 1777997773 | 22.22° C | - | - | 0 mm | 1.34 m/s, 270° | - | - |
| 1777997116 | 23.33° C | - | - | 0 mm | 0 m/s | - | - |
| 1777996756 | 23.33° C | - | - | 0 mm | 0 m/s | - | - |
| 1777996395 | 23.33° C | - | - | 0 mm | 0.45 m/s, 225° | - | - |
| 1777996034 | 23.89° C | - | - | 0 mm | 0.45 m/s, 225° | - | - |
| 1777995673 | 23.89° C | - | - | 0 mm | 0 m/s | - | - |
| 1777995313 | 23.89° C | - | - | 0 mm | 0.45 m/s, 270° | - | - |
| 1777994954 | 23.33° C | - | - | 0 mm | 0.89 m/s, 270° | - | - |
| 1777994593 | 22.78° C | - | - | 0 mm | 0 m/s | - | - |
| 1777994234 | 23.33° C | - | - | 0 mm | 0.45 m/s, 270° | - | - |
| 1777993516 | 22.78° C | - | - | 0 mm | 0 m/s | - | - |
| 1777993156 | 22.78° C | - | - | 0 mm | 0.45 m/s, 360° | - | - |
| 1777992795 | 21.67° C | - | - | 0 mm | 0.45 m/s, 315° | - | - |
| 1777992435 | 21.67° C | - | - | 0 mm | 0.89 m/s, 270° | - | - |
| 1777992076 | 21.11° C | - | - | 0 mm | 0.45 m/s, 270° | - | - |
| 1777991715 | 20.56° C | - | - | 0 mm | 0.89 m/s, 315° | - | - |
| 1777991355 | 20.56° C | - | - | 0 mm | 0.89 m/s, 360° | - | - |
| 1777990995 | 20° C | - | - | 0 mm | 0.89 m/s, 315° | - | - |
| 1777990634 | 20° C | - | - | 0 mm | 0.45 m/s, 225° | - | - |
| 1777989914 | 19.44° C | - | - | 0 mm | 0.45 m/s, 315° | - | - |
* Rain latest hour (hover to see other rain measurements)
** Current wind speed in m/s (hover to see current wind gust speed)